COSMOS 2544 (759)

Last updated on Thu Sep 03 2026 00:03:23 GMT+0000 (Coordinated Universal Time)

1 44850U 19088A 26245.45726006 .00000027 00000+0 00000+0 0 9993 2 44850 65.6117 71.1542 0011848 246.5067 113.4201 2.13102989 52364
UTC large
Height (km)
Speed (km/s)
/
Latitude / Longitude
Inclination (degrees)
Orbital Period (minutes)
Azimuth
Elevation
Range (km)
Doppler Factor

Next 0 passes for location: London (51.5072 / 0.1276)

No passes found over London.
COSMOS 2544 (759)